TimeCST,TemperatureF,Dew PointF,Humidity,Sea Level PressureIn,VisibilityMPH,Wind Direction,Wind SpeedMPH,Gust SpeedMPH,PrecipitationIn,Events,Conditions,WindDirDegrees,DateUTC
12:15 AM,37.4,24.8,60,30.26,10.0,SSE,8.1,-,N/A,,Clear,160,2012-11-29 06:15:00
12:35 AM,37.4,24.8,60,30.26,10.0,SSE,8.1,-,N/A,,Clear,160,2012-11-29 06:35:00
12:55 AM,37.4,24.8,60,30.25,10.0,SSE,6.9,-,N/A,,Clear,160,2012-11-29 06:55:00
1:15 AM,35.6,24.8,65,30.25,10.0,SSE,6.9,-,N/A,,Clear,150,2012-11-29 07:15:00
1:35 AM,35.6,24.8,65,30.24,10.0,SSE,5.8,-,N/A,,Clear,160,2012-11-29 07:35:00
1:55 AM,35.6,26.6,70,30.25,10.0,SSE,5.8,-,N/A,,Clear,160,2012-11-29 07:55:00
2:15 AM,37.4,26.6,65,30.25,10.0,SSE,5.8,-,N/A,,Clear,160,2012-11-29 08:15:00
2:35 AM,37.4,26.6,65,30.25,10.0,South,5.8,-,N/A,,Clear,170,2012-11-29 08:35:00
2:55 AM,37.4,26.6,65,30.26,10.0,SSE,5.8,-,N/A,,Clear,160,2012-11-29 08:55:00
3:35 AM,37.4,26.6,65,30.25,10.0,South,5.8,-,N/A,,Clear,170,2012-11-29 09:35:00
3:55 AM,35.6,26.6,70,30.25,10.0,SSE,5.8,-,N/A,,Clear,160,2012-11-29 09:55:00
4:15 AM,35.6,26.6,70,30.24,10.0,SSE,5.8,-,N/A,,Clear,160,2012-11-29 10:15:00
4:35 AM,37.4,26.6,65,30.24,10.0,South,4.6,-,N/A,,Clear,170,2012-11-29 10:35:00
4:55 AM,37.4,28.4,70,30.24,10.0,South,6.9,-,N/A,,Clear,170,2012-11-29 10:55:00
5:15 AM,37.4,28.4,70,30.24,10.0,South,6.9,-,N/A,,Clear,170,2012-11-29 11:15:00
5:35 AM,37.4,28.4,70,30.23,10.0,SSE,8.1,-,N/A,,Clear,160,2012-11-29 11:35:00
5:55 AM,37.4,28.4,70,30.23,10.0,SSE,9.2,-,N/A,,Clear,160,2012-11-29 11:55:00
6:15 AM,37.4,28.4,70,30.23,10.0,SSE,9.2,-,N/A,,Clear,160,2012-11-29 12:15:00
6:35 AM,37.4,28.4,70,30.24,10.0,SSE,8.1,-,N/A,,Clear,160,2012-11-29 12:35:00
6:55 AM,37.4,28.4,70,30.23,10.0,SSE,10.4,16.1,N/A,,Clear,160,2012-11-29 12:55:00
7:15 AM,37.4,28.4,70,30.22,10.0,South,10.4,-,N/A,,Clear,170,2012-11-29 13:15:00
7:35 AM,37.4,28.4,70,30.22,10.0,SSE,10.4,-,N/A,,Clear,160,2012-11-29 13:35:00
7:55 AM,39.2,30.2,70,30.21,10.0,SSE,10.4,16.1,N/A,,Clear,160,2012-11-29 13:55:00
8:15 AM,39.2,30.2,70,30.21,10.0,South,10.4,18.4,N/A,,Clear,170,2012-11-29 14:15:00
8:35 AM,42.8,30.2,61,30.21,10.0,SSE,10.4,19.6,N/A,,Clear,160,2012-11-29 14:35:00
8:55 AM,42.8,30.2,61,30.21,10.0,South,12.7,-,N/A,,Clear,180,2012-11-29 14:55:00
9:15 AM,44.6,30.2,57,30.21,10.0,South,8.1,-,N/A,,Clear,170,2012-11-29 15:15:00
9:35 AM,46.4,30.2,53,30.21,10.0,South,11.5,-,N/A,,Clear,170,2012-11-29 15:35:00
9:55 AM,48.2,30.2,50,30.20,10.0,South,9.2,-,N/A,,Clear,170,2012-11-29 15:55:00
10:15 AM,50.0,32.0,50,30.19,10.0,South,10.4,-,N/A,,Clear,190,2012-11-29 16:15:00
10:35 AM,51.8,32.0,47,30.19,10.0,South,10.4,-,N/A,,Clear,180,2012-11-29 16:35:00
10:55 AM,53.6,32.0,44,30.18,10.0,South,8.1,-,N/A,,Clear,180,2012-11-29 16:55:00
11:15 AM,55.4,33.8,44,30.16,10.0,South,10.4,-,N/A,,Clear,190,2012-11-29 17:15:00
11:35 AM,57.2,33.8,41,30.15,10.0,South,10.4,16.1,N/A,,Clear,190,2012-11-29 17:35:00
11:55 AM,57.2,33.8,41,30.14,10.0,South,10.4,17.3,N/A,,Clear,190,2012-11-29 17:55:00
12:15 PM,60.8,35.6,39,30.12,10.0,SSW,11.5,-,N/A,,Clear,200,2012-11-29 18:15:00
12:35 PM,60.8,35.6,39,30.12,10.0,South,11.5,-,N/A,,Clear,190,2012-11-29 18:35:00
12:55 PM,62.6,35.6,37,30.12,10.0,SSW,12.7,16.1,N/A,,Clear,200,2012-11-29 18:55:00
1:15 PM,62.6,37.4,39,30.10,10.0,South,9.2,-,N/A,,Clear,190,2012-11-29 19:15:00
1:35 PM,64.4,37.4,37,30.10,10.0,SW,12.7,17.3,N/A,,Clear,220,2012-11-29 19:35:00
1:55 PM,64.4,37.4,37,30.09,10.0,SSW,13.8,17.3,N/A,,Clear,210,2012-11-29 19:55:00
2:15 PM,64.4,37.4,37,30.08,10.0,SW,11.5,23.0,N/A,,Clear,220,2012-11-29 20:15:00
2:35 PM,64.4,35.6,34,30.08,10.0,South,13.8,17.3,N/A,,Clear,190,2012-11-29 20:35:00
2:55 PM,64.4,35.6,34,30.08,10.0,SSW,11.5,-,N/A,,Clear,200,2012-11-29 20:55:00
3:15 PM,64.4,33.8,32,30.08,10.0,SW,17.3,-,N/A,,Clear,220,2012-11-29 21:15:00
3:35 PM,64.4,30.2,28,30.08,10.0,South,13.8,-,N/A,,Clear,190,2012-11-29 21:35:00
3:55 PM,62.6,28.4,27,30.08,10.0,SSW,10.4,-,N/A,,Clear,200,2012-11-29 21:55:00
4:15 PM,62.6,28.4,27,30.08,10.0,SSW,11.5,-,N/A,,Clear,200,2012-11-29 22:15:00
4:35 PM,60.8,28.4,29,30.08,10.0,South,8.1,-,N/A,,Clear,190,2012-11-29 22:35:00
4:55 PM,59.0,28.4,31,30.09,10.0,South,9.2,-,N/A,,Clear,190,2012-11-29 22:55:00
5:15 PM,57.2,28.4,33,30.09,10.0,South,9.2,-,N/A,,Clear,190,2012-11-29 23:15:00
5:35 PM,57.2,28.4,33,30.09,10.0,South,10.4,-,N/A,,Clear,190,2012-11-29 23:35:00
5:55 PM,55.4,28.4,36,30.09,10.0,South,8.1,-,N/A,,Clear,180,2012-11-29 23:55:00
6:15 PM,55.4,30.2,38,30.09,10.0,South,10.4,-,N/A,,Clear,170,2012-11-30 00:15:00
6:35 PM,55.4,30.2,38,30.09,10.0,South,6.9,-,N/A,,Clear,170,2012-11-30 00:35:00
6:55 PM,53.6,30.2,41,30.08,10.0,South,8.1,-,N/A,,Clear,180,2012-11-30 00:55:00
7:15 PM,53.6,30.2,41,30.08,10.0,South,8.1,16.1,N/A,,Clear,170,2012-11-30 01:15:00
7:35 PM,53.6,28.4,38,30.08,10.0,South,12.7,-,N/A,,Clear,180,2012-11-30 01:35:00
7:55 PM,53.6,28.4,38,30.08,10.0,South,10.4,17.3,N/A,,Clear,180,2012-11-30 01:55:00
8:15 PM,53.6,28.4,38,30.08,10.0,South,10.4,-,N/A,,Clear,180,2012-11-30 02:15:00
8:35 PM,51.8,28.4,41,30.09,10.0,South,10.4,-,N/A,,Clear,190,2012-11-30 02:35:00
8:55 PM,51.8,28.4,41,30.09,10.0,South,10.4,-,N/A,,Clear,190,2012-11-30 02:55:00
9:15 PM,51.8,28.4,41,30.09,10.0,South,10.4,-,N/A,,Clear,180,2012-11-30 03:15:00
9:35 PM,51.8,28.4,41,30.09,10.0,South,9.2,-,N/A,,Clear,180,2012-11-30 03:35:00
9:55 PM,51.8,28.4,41,30.10,10.0,South,8.1,-,N/A,,Clear,180,2012-11-30 03:55:00
10:15 PM,50.0,28.4,43,30.10,10.0,South,6.9,-,N/A,,Clear,180,2012-11-30 04:15:00
10:35 PM,48.2,28.4,46,30.10,10.0,South,6.9,-,N/A,,Clear,180,2012-11-30 04:35:00
10:55 PM,48.2,28.4,46,30.10,10.0,South,6.9,-,N/A,,Clear,180,2012-11-30 04:55:00
11:15 PM,48.2,28.4,46,30.11,10.0,South,5.8,-,N/A,,Clear,180,2012-11-30 05:15:00
11:35 PM,48.2,28.4,46,30.11,10.0,South,8.1,-,N/A,,Clear,190,2012-11-30 05:35:00
11:55 PM,46.4,28.4,50,30.12,10.0,South,8.1,-,N/A,,Clear,190,2012-11-30 05:55:00